Hourly Data Report for May 05, 2006

TORONTO CITY
ONTARIO

43°40'00.000" N
79°24'00.000" W
112.50 m
6158355
71508
XTO

Download Data

Hourly Data (May 2006)
Hourly Data Report for May 5, 2006
TIME
LST
Temp Definition
°C
Dew Point Definition
°C
Rel Hum Definition
%
Precip. Amount Definition
mm

Wind Dir Definition
10's deg

Wind Spd Definition
km/h
Visibility Definition
km
Stn Press Definition
kPa
Hmdx Definition


Wind Chill Definition


Weather Definition


00:00 12.6 4.6 58   LegendMM LegendMM   99.60     LegendNANA
01:00 11.8 4.7 62   LegendMM LegendMM   99.64     LegendNANA
02:00 11.0 4.9 66   LegendMM LegendMM   99.68     LegendNANA
03:00 10.2 5.0 70   LegendMM LegendMM   99.72     LegendNANA
04:00 9.5 4.9 73   LegendMM LegendMM   99.74     LegendNANA
05:00 9.1 4.3 72   LegendMM LegendMM   99.78     LegendNANA
06:00 9.2 4.2 71   LegendMM LegendMM   99.79     LegendNANA
07:00 10.2 4.4 67   LegendMM LegendMM   99.82     LegendNANA
08:00 11.1 3.6 60   LegendMM LegendMM   99.80     LegendNANA
09:00 12.9 3.6 53   LegendMM LegendMM   99.79     LegendNANA
10:00 13.9 3.9 51   LegendMM LegendMM   99.78     LegendNANA
11:00 15.2 5.6 53   LegendMM LegendMM   99.79     LegendNANA
12:00 13.3 4.4 55   LegendMM LegendMM   99.78     LegendNANA
13:00 15.0 6.3 56   LegendMM LegendMM   99.74     LegendNANA
14:00 15.8 5.8 51   LegendMM LegendMM   99.73     LegendNANA
15:00 16.2 5.4 49   LegendMM LegendMM   99.68     LegendNANA
16:00 16.9 5.8 48   LegendMM LegendMM   99.62     LegendNANA
17:00 16.8 5.1 46   LegendMM LegendMM   99.60     LegendNANA
18:00 16.2 4.3 45   LegendMM LegendMM   99.60     LegendNANA
19:00 15.8 3.5 44   LegendMM LegendMM   99.63     LegendNANA
20:00 13.9 4.5 53   LegendMM LegendMM   99.67     LegendNANA
21:00 12.1 2.8 53   LegendMM LegendMM   99.69     LegendNANA
22:00 11.6 2.8 55   LegendMM LegendMM   99.68     LegendNANA
23:00 11.0 1.0 50   LegendMM LegendMM   99.65     LegendNANA

Notes on Data Quality.

Legend

  • E = Estimated
  • M = Missing
  • NA = Not Available*
  • [empty] = Indicates an unobserved value
Date modified: